Wind_Speed
25 24 25 25 24 24 21 19 18 17 16 15 15 14 12 11 11 9 9 8 8 8 7 7 7 7 7 7 8 9 8 8 8 7 7 7 6 6 7 8 6 8 6
23 23 24 24 24 22 19 17 16 15 14 14 14 13 11 10 9 8 8 7 7 6 6 8 8 8 8 7 9 8 9 8 7 7 7 9 8 6 6 6 5 6 5
23 22 23 24 23 19 17 16 14 14 13 13 12 10 10 9 9 8 7 5 7 7 7 9 6 9 8 8 8 7 7 6 6 6 6 9 9 6 5 5 5 5 4
24 23 23 23 22 19 16 15 14 13 12 11 10 9 9 9 9 9 8 7 7 8 8 8 9 9 8 9 6 6 5 6 5 5 10 10 4 5 4 4 5 5 4
24 22 23 23 20 18 16 15 14 13 13 13 12 11 11 10 11 11 10 10 10 10 8 9 9 8 7 6 5 5 6 4 4 1 7 5 3 4 3 3 3 4 4
19 23 22 21 19 17 16 16 16 16 15 13 13 13 13 13 12 12 12 11 10 10 9 8 8 8 4 5 2 4 4 4 3 9 5 4 4 4 2 1 1 1 3
23 23 22 21 19 19 18 17 16 14 14 14 15 15 14 13 13 13 12 11 10 9 8 6 6 4 2 3 3 3 4 5 5 4 5 6 6 4 3 2 1 1 1
24 23 20 19 19 17 17 16 14 13 14 15 14 14 13 13 12 11 11 11 10 10 10 8 6 4 3 2 2 3 4 4 5 9 4 8 6 5 4 3 4 3 3
22 21 18 17 17 16 15 14 13 13 12 12 11 10 11 11 11 11 10 10 9 8 9 9 9 5 6 4 3 3 2 4 6 6 6 8 9 5 6 5 5 5 5
20 19 17 17 16 15 15 13 12 11 11 10 10 10 10 10 10 9 8 8 9 9 10 11 11 9 5 5 5 6 4 2 5 8 13 10 9 8 7 6 7 6 6
20 17 16 15 14 14 14 11 11 9 8 7 8 8 6 11 9 8 9 9 9 9 10 9 8 8 6 4 4 5 5 5 3 6 16 19 13 10 11 10 8 8 8
16 18 15 15 15 14 13 10 8 7 7 8 6 5 4 7 7 6 7 9 9 9 11 10 10 9 9 8 8 5 6 3 10 11 14 18 13 13 12 12 12 11 10
16 17 16 16 14 14 11 10 7 5 6 5 4 5 6 5 4 7 7 11 11 13 7 10 9 13 9 11 10 10 9 11 10 9 13 11 12 13 15 15 15 15 14
18 16 16 15 13 12 11 9 7 5 3 3 5 4 4 4 4 5 6 5 11 14 10 9 7 8 9 12 13 12 11 10 9 12 13 14 13 15 16 16 17 18 17
17 16 15 14 12 10 9 9 8 6 3 1 1 2 4 4 3 4 7 10 13 9 12 18 18 17 15 14 15 12 11 11 14 14 15 19 17 15 16 17 17 18 20
19 17 15 15 13 11 9 8 7 5 3 2 2 4 4 2 2 4 6 10 6 11 11 15 18 23 23 21 21 21 19 17 15 12 18 19 24 21 17 18 19 19 19
19 18 16 15 14 12 10 9 7 6 5 4 3 3 4 3 1 3 7 8 5 9 13 18 19 20 22 22 23 23 23 20 17 16 17 19 22 23 24 22 22 23 24
18 17 16 16 14 13 11 9 9 7 6 6 4 2 1 2 6 6 6 2 7 8 11 13 16 16 19 21 22 22 23 21 20 17 17 18 19 20 25 27 26 24 27
17 18 17 15 14 13 12 10 9 8 8 7 6 2 6 8 8 6 6 2 3 6 8 12 15 17 18 20 23 24 24 21 20 21 18 17 17 19 19 25 29 26 24
16 16 16 16 16 14 13 12 10 10 10 10 8 9 10 11 10 7 5 2 2 6 9 13 15 18 20 21 23 25 27 27 21 27 24 21 19 21 22 23 26 29 28
17 17 17 16 15 14 13 11 11 11 12 11 9 9 10 12 10 7 4 3 5 8 11 13 17 21 24 26 27 26 27 23 25 35 28 24 23 23 23 25 25 25 26
17 17 16 16 15 13 12 13 13 14 13 10 9 11 13 12 11 9 7 8 9 12 15 18 21 22 27 33 32 31 29 18 18 33 29 28 27 30 30 27 24 25 26
17 16 16 15 14 13 14 15 14 12 10 10 11 13 14 14 13 13 13 13 13 15 16 19 22 27 29 33 37 35 32 28 30 26 31 29 33 33 31 31 31 27 24
16 17 18 17 16 15 15 13 13 13 13 14 15 15 17 17 17 17 17 17 18 20 24 27 28 32 32 33 33 34 35 35 33 34 32 32 34 35 35 35 31 28 27
18 19 19 19 19 18 16 15 15 15 15 15 16 14 15 17 18 20 20 20 22 31 35 35 39 35 34 33 33 34 34 33 34 36 35 33 34 36 38 37 31 29 26
21 21 21 20 19 19 18 17 16 15 16 16 17 17 18 19 20 21 20 23 31 30 32 41 43 40 36 33 34 34 33 32 32 34 37 40 41 40 39 32 29 28 29
Wind_Direction
128 125 125 125 126 125 122 118 117 118 116 114 112 108 105 99 94 92 89 89 78 62 58 67 79 79 74 85 85 90 82 87 88 91 91 86 81 84 85 84 106 92 88
126 128 130 128 128 126 122 119 117 115 113 112 109 105 98 93 95 93 87 81 75 72 66 79 74 84 86 85 85 80 84 83 83 90 90 93 71 68 78 90 86 87 96
131 131 129 129 129 126 124 120 118 116 113 113 109 104 94 92 97 92 91 77 77 77 82 86 84 80 81 74 75 79 79 76 78 81 89 53 64 65 74 92 87 88 97
130 133 132 129 130 129 125 123 122 121 118 110 103 95 90 93 93 92 81 76 80 84 91 93 85 82 79 66 48 63 58 62 59 55 92 106 106 83 78 84 93 93 93
140 137 133 132 129 127 128 125 121 118 110 105 106 98 90 84 83 81 80 76 80 84 87 86 82 75 57 62 46 42 43 61 50 63 71 69 41 87 79 81 94 103 100
128 140 137 129 128 128 125 121 116 113 109 99 92 87 85 84 85 83 79 78 78 78 69 85 88 72 57 59 37 57 44 22 2 44 21 40 23 31 50 63 74 113 120
154 142 138 132 130 128 124 121 114 108 98 94 92 90 89 86 80 81 84 84 79 77 80 77 78 87 105 53 14 38 47 36 47 82 353 29 27 356 360 334 276 242 244
145 144 142 134 133 128 125 119 109 100 95 89 86 83 81 78 77 76 74 70 70 67 54 35 25 27 36 10 354 26 33 45 15 353 344 304 336 337 332 313 296 283 267
149 147 146 140 136 131 124 113 108 103 97 91 83 79 75 70 66 61 65 62 57 46 26 21 21 7 354 351 326 343 9 50 41 162 2 292 287 319 319 307 291 283 278
150 155 154 146 142 137 126 118 113 106 96 88 87 79 68 62 53 49 41 45 38 27 23 20 21 22 3 339 346 336 340 342 51 22 300 271 282 290 291 291 290 283 276
166 160 155 146 143 143 134 132 121 108 95 88 87 78 69 54 42 41 38 36 22 14 12 15 10 6 357 340 333 323 322 325 145 296 296 285 282 278 282 276 277 279 276
165 164 156 150 150 149 144 141 127 118 101 82 91 61 81 47 47 31 29 19 8 5 354 360 7 345 355 341 355 289 290 274 246 241 239 274 278 282 276 271 268 270 271
175 167 163 159 159 152 166 149 138 123 104 91 69 44 39 30 22 24 8 3 3 2 339 360 8 336 337 335 322 332 288 285 288 269 267 287 288 282 273 270 264 263 265
172 175 170 171 169 166 167 160 154 149 118 59 45 27 8 353 14 20 8 2 20 1 9 358 351 328 339 340 341 321 315 309 299 259 288 281 279 284 282 279 272 267 265
183 179 180 178 175 171 173 169 163 159 144 94 341 326 330 333 26 22 19 60 36 23 11 24 21 15 10 6 346 340 314 298 289 299 286 290 300 286 279 275 273 271 268
189 190 185 186 184 183 180 177 174 173 181 216 270 293 305 22 82 64 64 68 31 43 44 47 42 37 33 23 10 358 348 335 320 285 276 283 297 296 283 279 274 270 268
190 191 192 190 191 192 194 196 194 201 212 227 257 270 298 305 120 120 63 68 52 51 52 42 35 28 30 26 23 14 9 355 338 322 311 299 291 288 290 281 275 272 269
187 186 191 194 194 198 202 204 207 212 224 228 243 259 262 177 161 153 54 17 59 45 38 36 26 23 24 23 17 14 9 4 358 348 338 323 307 294 290 293 286 280 272
192 190 191 196 198 201 202 208 213 216 223 234 237 299 257 183 167 161 115 136 59 27 13 15 11 14 10 6 3 1 360 357 359 1 352 340 330 323 310 299 293 292 278
197 197 197 198 200 203 206 208 212 214 222 232 236 217 199 183 178 175 149 143 345 355 351 355 352 354 350 352 351 348 351 350 352 355 354 351 340 329 324 318 308 302 293
205 202 203 205 207 211 214 217 221 224 229 235 230 206 189 187 191 198 213 246 297 324 331 330 339 340 337 335 338 338 344 347 340 349 336 339 338 341 330 319 315 311 302
215 214 213 214 216 218 222 223 227 232 232 231 218 195 196 202 209 223 241 264 287 300 316 325 329 330 331 326 328 332 337 355 314 326 332 332 335 331 334 326 315 304 298
225 224 225 224 222 222 227 229 228 226 217 198 196 200 208 215 223 234 246 260 277 293 305 314 324 327 327 327 324 322 326 326 322 329 329 323 326 325 327 328 323 316 302
222 220 220 220 216 215 220 213 205 202 197 196 202 210 220 226 234 243 254 271 282 289 294 304 313 318 317 322 321 321 321 323 325 323 325 324 324 320 321 322 320 311 308
209 212 210 210 206 205 203 202 201 201 204 211 218 227 236 246 246 258 275 281 297 304 307 310 305 314 317 317 318 320 318 318 320 319 318 317 316 318 315 315 314 311 311
203 206 210 211 208 210 210 212 215 219 226 235 242 252 256 262 268 269 269 288 292 288 295 306 310 296 309 310 312 313 312 309 315 318 317 320 319 319 316 313 315 312 313
Height
3184 3187 3188 3188 3191 3192 3194 3195 3195 3197 3198 3199 3199 3200 3200 3200 3200 3201 3201 3200 3201 3201 3200 3200 3200 3200 3200 3200 3201 3200 3201 3201 3201 3201 3200 3200 3200 3199 3199 3198 3198 3197 3197
3187 3188 3190 3192 3194 3196 3198 3199 3200 3200 3201 3202 3202 3203 3202 3202 3202 3203 3202 3203 3203 3203 3203 3202 3202 3201 3202 3202 3202 3203 3202 3203 3202 3202 3201 3201 3201 3201 3200 3200 3199 3198 3199
3189 3192 3194 3195 3197 3199 3200 3201 3202 3203 3204 3204 3204 3205 3204 3204 3205 3205 3204 3204 3204 3204 3205 3204 3205 3204 3204 3205 3204 3204 3204 3204 3204 3203 3203 3202 3202 3202 3202 3201 3201 3200 3200
3193 3196 3197 3197 3199 3201 3202 3203 3204 3205 3206 3206 3206 3206 3205 3205 3206 3206 3207 3206 3206 3206 3206 3207 3205 3206 3207 3206 3207 3206 3206 3206 3205 3204 3203 3206 3204 3203 3203 3203 3202 3201 3201
3195 3198 3199 3200 3201 3203 3204 3206 3206 3207 3208 3208 3208 3208 3208 3209 3209 3209 3208 3208 3208 3208 3209 3208 3208 3209 3209 3208 3208 3208 3207 3207 3206 3205 3206 3206 3205 3204 3204 3204 3204 3203 3202
3198 3200 3202 3202 3204 3206 3207 3208 3209 3210 3210 3210 3210 3211 3211 3211 3211 3211 3211 3211 3210 3210 3210 3209 3210 3209 3209 3209 3209 3208 3208 3208 3207 3205 3208 3207 3206 3205 3205 3205 3205 3205 3204
3200 3202 3204 3205 3207 3208 3209 3210 3212 3213 3213 3213 3213 3213 3213 3213 3213 3213 3213 3213 3213 3213 3212 3212 3210 3209 3210 3209 3209 3209 3208 3208 3208 3212 3209 3208 3208 3207 3206 3206 3206 3206 3205
3202 3204 3206 3207 3209 3210 3211 3212 3214 3214 3214 3215 3215 3215 3215 3216 3215 3216 3216 3215 3215 3214 3214 3214 3212 3211 3210 3210 3210 3210 3209 3209 3209 3212 3212 3207 3209 3208 3207 3207 3207 3206 3206
3205 3206 3208 3209 3211 3212 3214 3214 3215 3216 3217 3217 3218 3218 3218 3218 3218 3218 3218 3217 3216 3215 3215 3214 3213 3212 3211 3211 3210 3210 3210 3210 3211 3211 3213 3210 3210 3208 3207 3207 3206 3206 3206
3205 3207 3209 3210 3212 3213 3215 3217 3218 3219 3219 3220 3220 3220 3220 3219 3219 3219 3219 3218 3217 3217 3216 3215 3214 3213 3212 3211 3211 3211 3211 3211 3212 3211 3212 3207 3208 3207 3206 3206 3206 3206 3205
3206 3208 3210 3212 3213 3215 3217 3218 3219 3221 3221 3222 3222 3221 3221 3221 3221 3220 3220 3219 3218 3217 3216 3215 3214 3214 3213 3212 3211 3210 3210 3211 3213 3215 3211 3209 3208 3206 3206 3205 3205 3204 3204
3207 3209 3211 3213 3215 3217 3219 3220 3221 3222 3222 3223 3223 3223 3225 3222 3222 3221 3221 3219 3218 3217 3216 3215 3214 3213 3213 3211 3209 3210 3210 3209 3210 3207 3208 3207 3206 3205 3204 3204 3203 3203 3203
3210 3210 3212 3214 3216 3218 3220 3221 3222 3223 3224 3224 3224 3224 3224 3223 3223 3221 3219 3220 3217 3216 3214 3214 3212 3211 3210 3211 3210 3210 3209 3208 3207 3208 3204 3206 3204 3203 3203 3202 3201 3201 3201
3210 3213 3213 3215 3217 3219 3220 3222 3223 3224 3225 3225 3226 3225 3225 3224 3224 3222 3221 3220 3219 3218 3216 3215 3213 3212 3210 3209 3209 3209 3207 3206 3205 3205 3205 3203 3203 3201 3201 3200 3200 3199 3198
3209 3212 3214 3216 3218 3220 3221 3222 3223 3224 3225 3226 3226 3225 3225 3224 3224 3223 3222 3221 3222 3221 3220 3217 3215 3213 3211 3208 3206 3205 3204 3203 3203 3203 3203 3199 3199 3198 3197 3196 3196 3196 3196
3210 3212 3214 3216 3218 3219 3221 3222 3223 3224 3225 3226 3225 3225 3224 3224 3224 3223 3222 3223 3224 3221 3219 3217 3216 3213 3211 3211 3209 3206 3203 3201 3200 3199 3198 3197 3195 3194 3194 3193 3193 3192 3192
3210 3212 3214 3216 3218 3219 3221 3222 3223 3224 3225 3225 3225 3225 3224 3224 3224 3223 3225 3224 3224 3222 3220 3217 3216 3215 3213 3212 3209 3207 3204 3201 3198 3195 3194 3193 3191 3190 3189 3188 3188 3188 3188
3209 3211 3213 3215 3217 3219 3220 3222 3222 3224 3224 3224 3224 3224 3225 3224 3223 3224 3226 3227 3224 3222 3220 3219 3217 3216 3213 3211 3209 3207 3204 3201 3197 3194 3191 3189 3188 3187 3184 3183 3182 3183 3182
3208 3210 3212 3214 3216 3218 3220 3221 3222 3223 3223 3223 3224 3225 3224 3224 3223 3223 3224 3224 3224 3222 3221 3220 3219 3216 3214 3211 3209 3206 3203 3199 3196 3194 3191 3188 3184 3182 3181 3178 3176 3176 3175
3208 3209 3211 3213 3214 3216 3218 3219 3220 3221 3221 3221 3222 3223 3223 3224 3224 3223 3223 3224 3224 3222 3221 3220 3218 3216 3213 3210 3207 3204 3201 3197 3194 3192 3188 3185 3182 3180 3177 3175 3172 3170 3167
3207 3208 3210 3211 3213 3215 3216 3218 3219 3219 3219 3220 3221 3222 3222 3223 3224 3224 3224 3224 3223 3221 3220 3218 3215 3213 3211 3209 3206 3204 3200 3194 3191 3188 3186 3182 3180 3177 3174 3170 3168 3165 3164
3205 3207 3208 3210 3212 3214 3215 3216 3217 3218 3218 3219 3220 3221 3222 3223 3223 3223 3223 3223 3222 3221 3218 3216 3213 3211 3208 3204 3202 3199 3196 3197 3190 3188 3184 3180 3176 3173 3169 3165 3162 3160 3157
3203 3205 3207 3209 3210 3212 3213 3214 3215 3216 3217 3218 3219 3220 3221 3221 3221 3221 3221 3221 3219 3218 3216 3212 3211 3208 3206 3203 3196 3195 3192 3191 3185 3183 3179 3175 3172 3169 3165 3161 3156 3152 3150
3201 3203 3205 3206 3208 3210 3211 3213 3214 3215 3216 3217 3217 3218 3218 3218 3218 3218 3218 3218 3218 3215 3213 3210 3208 3205 3202 3200 3196 3191 3187 3184 3180 3177 3177 3171 3166 3160 3156 3153 3151 3147 3143
3198 3200 3203 3205 3207 3209 3210 3212 3213 3214 3215 3216 3216 3216 3216 3216 3216 3216 3217 3217 3216 3213 3211 3209 3205 3202 3199 3195 3191 3188 3184 3180 3176 3172 3168 3169 3164 3159 3152 3146 3142 3139 3137
3196 3198 3200 3202 3205 3207 3209 3210 3212 3213 3214 3214 3214 3214 3214 3214 3214 3214 3212 3212 3210 3208 3206 3204 3199 3196 3195 3192 3188 3185 3180 3177 3173 3167 3161 3156 3153 3154 3146 3139 3134 3132 3130